User: anonymous   Login
Location: Montr�al
(45.5000°N, 73.5830°W)
Time: 07:48:58
(UTC-04:00)
Language:

Cosmos 1470 Rocket - Orbit

View from above orbital plane
View from above orbital plane
View from above satellite
View from above satellite

Ground track
Ground track

The orbit data is extracted from the following two-line orbital elements,

1 14148U 83061B   17082.85847108 +.00000078 +00000-0 +66163-5 0  9997
2 14148 082.5216 349.5084 0020084 253.0793 174.4476 14.83217959801067
Epoch (UTC): 23 March 2017 20:36:11
Eccentricity: 0.0020084
inclination: 82.5216°
perigee height: 605 km
apogee height: 633 km
right ascension of ascending node: 349.5084°
argument of perigee: 253.0793°
revolutions per day: 14.83217959
mean anomaly at epoch: 174.4476°
orbit number at epoch: 80106

The dashed part of the orbit path shows where the satellite is in the earth's shadow,  

DLR